Japanese version Home page |
Updated on September 13, 2009 |
Profile
|
Orbital ElementsEpoch 2003 Feb. 10.0 TT = JDT 2452680.5 T 2003 Feb. 1.25508 TT MPC q 1.9157137 (2000.0) P Q n 0.13907171 Peri. 357.08440 +0.59893561 -0.53790383 a 3.6895794 Node 55.19398 +0.74856136 +0.11289234 e 0.4807772 Incl. 46.26174 +0.28448556 +0.83541294 P 7.09
|
Finding Charts
|
Magnitudes Graphm1 = 6.5 + 5 log d + 30 log r(t - 75)
|
The orbital elements are published on M.P.E.C. 2009-R40.
|